Location: Apeadero de Los Molinos-Guadarrama
(40.7091°N, 4.0689°W)
Time: 12:14:55
(UTC+00:00)

ATLAS 5 CENTAUR R/B - Pass Details

Date: 14 May 2021
Orbit: 513 x 1144 km, 63.3° (Epoch: 18 June)

Event Time Altitude Azimuth Distance (km) Brightness Sun altitude
Rises 21:26:00 0° 310° (NW) 3,418 7.0 -19.0°
Reaches altitude 10° 21:28:51 10° 296° (WNW) 2,587 5.7 -19.3°
Maximum altitude 21:33:27 23° 247° (WSW) 1,971 4.3 -19.9°
Enters shadow 21:38:32 10° 199° (SSW) 2,874 4.7 -20.5°
